Regional Weather Roundup
Issued by NWS

Home | Current Version | Previous Version | Text Only | Print | Product List | Glossary Off
Versions: 1 2 3 4 5 6 7 8 9 10 11 12 13 14 15 16 17 18 19 20 21 22 23 24 25 26 27 28 29 30 31 32 33 34 35 36 37 38 39 40 41 42 43 44 45 46 47 48 49 50

000
ASUS43 KLOT 241710
RWRIL

ILLINOIS REGIONAL WEATHER ROUNDUP
NATIONAL WEATHER SERVICE CHICAGO/ROMEOVILLE IL
1200 PM CDT FRI OCT 24 2014

NOTE: "FAIR" INDICATES FEW OR NO CLOUDS BELOW 12,000 FEET WITH NO
SIGNIFICANT WEATHER AND/OR OBSTRUCTIONS TO VISIBILITY.

* THESE STATIONS ARE NOT UNDER NWS QUALITY CONTROL. THEY ALSO MAY NOT
  REPORT WEATHER SUCH AS PRECIPITATION OR FOG.

ILZ001-002-007-009-015-016-024-241800-
NORTHWEST ILLINOIS

CITY           SKY/WX    TMP DP  RH WIND       PRES   REMARKS
MOLINE         PTSUNNY   59  53  80 S6        30.05F
STERLING*      CLOUDY    54  48  82 SW3       30.07F
SAVANNA*       CLOUDY    53  52  95 S7        30.05F FOG
$$

ILZ003-004-008-010-011-017-018-241800-
NORTH CENTRAL ILLINOIS

CITY           SKY/WX    TMP DP  RH WIND       PRES   REMARKS
ROCKFORD       CLOUDY    52  50  93 SW8       30.08S FOG
FREEPORT*      CLOUDY    52  51  95 S6        30.07F FOG
ROCHELLE*      PTSUNNY   57  50  78 SW3       30.06F
DE KALB*       PTSUNNY   58  49  74 SW3       30.06F
PERU*          PTSUNNY   55  52  89 CALM      30.07F
$$

ILZ005-006-012>014-019>023-241800-
NORTHEAST ILLINOIS

CITY           SKY/WX    TMP DP  RH WIND       PRES   REMARKS
CHICAGO-OHARE  PTSUNNY   60  48  64 S5        30.04F
CHICAGO-MIDWAY PTSUNNY   61  50  67 SW5       30.05F
AURORA         MOSUNNY   62  49  62 CALM      30.05F
LANSING*       PTSUNNY   61  50  68 W6        30.05F
JOLIET*        SUNNY     60  49  68 SW3       30.06S
WAUKEGAN       MOSUNNY   55  49  80 SW6       30.03F
DUPAGE AIRPORT MOSUNNY   63  49  60 VRB5      30.04F
KANKAKEE*      SUNNY     63  53  68 SW5       30.07F
WHEELING       MOSUNNY   62  49  62 S5        30.05F
MORRIS*        MOSUNNY   60  52  73 W6        30.05S
ROMEOVILLE*    SUNNY     60  49  66 SW3       30.05F
NORTHERLY ISL    N/A     59  48  67 SW3         N/A
$$

LMZ740>746-241800-
SOUTHERN LAKE MICHIGAN

STATION/POSITION SKY/WX   TEMP    WIND        PRES    VSBY  WAVE
                          AIR SEA DIR/SP/G                  HT/PER
                          (F)     (DEG/KT/KT) (MB)    (MI)  (FT/S)
SOUTHERN BUOY              52 54  240/  8/ 10 1017.5F         1
WAUKEGAN HARBOR            56     260/  4/  5   N/A
HARRISON CRIB              57      90/  3/  3   N/A
BURNHAM HARBOR             58     120/  3/  6   N/A
CALUMET HARBOR             60     190/  4/  7 1016.4F
MICHIGAN CITY              55     250/  6/  7   N/A
$$

ILZ025>027-034>036-040-047-049-050-058-095>099-241800-
WEST-CENTRAL ILLINOIS

CITY           SKY/WX    TMP DP  RH WIND       PRES   REMARKS
QUINCY         FOG       57  56  96 S8        30.09F VSB 1/4
GALESBURG*     CLOUDY    55  54  99 S8        30.08F FOG
MACOMB*        FOG       55  55 100 S9        30.10F VSB 1
JACKSONVILLE*  CLOUDY    64  56  76 W9        30.10F
PITTSFIELD*    PTSUNNY   62  57  84 SW3       30.10F
$$

ILZ028>032-037-038-041>044-048-051>054-059>061-241800-
CENTRAL ILLINOIS

CITY           SKY/WX    TMP DP  RH WIND       PRES   REMARKS
PONTIAC        SUNNY     63  52  67 CALM      30.08S
BLOOMINGTON    MOSUNNY   64  54  70 SW8       30.09S
DECATUR        MOSUNNY   64  55  72 SW3       30.09F
PEORIA         PTSUNNY   61  53  75 SW7       30.08F HAZE
LACON*         PTSUNNY   59  52  78 NW3       30.07S HAZE
LINCOLN*       PTSUNNY   63  55  76 CALM      30.07S
SPRINGFIELD    CLOUDY    57  55  93 W7        30.10F FOG
TAYLORVILLE    CLOUDY    55  54  94 W3        30.10F FOG
$$

ILZ033-039-045-046-055>057-062-063-241800-
EAST-CENTRAL ILLINOIS

CITY           SKY/WX    TMP DP  RH WIND       PRES   REMARKS
CHAMPAIGN      PTSUNNY   63  53  70 VRB3      30.09F
DANVILLE*      CLOUDY    60  51  72 W5        30.06S
RANTOUL*       PTSUNNY   65  53  65 SW6       30.08F
MATTOON        MOSUNNY   65  53  65 CALM      30.08F
PARIS*         CLOUDY    63  52  66 CALM      30.09F
$$

ILZ079-100>102-241800-
SOUTHWEST ILLINOIS

CITY           SKY/WX    TMP DP  RH WIND       PRES   REMARKS
ALTON          PTSUNNY   63  55  77 SW9       30.12F
BELLEVILLE     MOSUNNY   65  59  79 VRB1      30.11F
CAHOKIA*       MOSUNNY   66  55  67 W6        30.12F
SPARTA*        CLOUDY    60  56  86 CALM      30.14S
$$

ILZ064>066-069>071-074>076-080>082-084>086-088>090-092>094-241800-
SOUTH-CENTRAL ILLINOIS

CITY           SKY/WX    TMP DP  RH WIND       PRES   REMARKS
CARBONDALE     PTSUNNY   64  53  67 W6        30.13S
CAIRO*         SUNNY     68  52  57 W6        30.13F
EFFINGHAM*     PTSUNNY   65  51  62 W3        30.10F
MARION         PTSUNNY   64  55  72 NW6       30.13S
MT. VERNON     PTSUNNY   66  55  68 SW3       30.13S
CENTRALIA*     MOSUNNY   64  52  66 CALM      30.11F
SALEM*         PTSUNNY   65  57  75 W3        30.12F
METROPOLIS*    MOSUNNY   64  53  67 CALM      30.12F
$$

ILZ067-068-072-073-078-083-087-091-241800-
SOUTHEAST ILLINOIS

CITY           SKY/WX    TMP DP  RH WIND       PRES   REMARKS
LAWRENCEVILLE  SUNNY     64  50  60 VRB3      30.11F
FLORA*         SUNNY     65  53  64 CALM      30.11F
FAIRFIELD*     SUNNY     65  53  63 CALM      30.10F
HARRISBURG*    MOSUNNY   65  54  67 CALM      30.13S
ROBINSON*      PTSUNNY   67  51  56 S3        30.11F
CARMI*         CLOUDY    65  52  63 CALM      30.11F
$$

ABBREVIATIONS USED IN REMARKS
   TC - TEMPERATURE IN CELSIUS
  WCI - WIND CHILL INDEX
   HX - HEAT INDEX
  VSB - VISIBILITY
$$




USA.gov is the U.S. government's official web portal to all federal, state and local government web resources and services.